237  
ASUS44 KMEG 210010  
RWRMEG  
MEMPHIS CWA HOURLY WEATHER ROUNDUP  
NATIONAL WEATHER SERVICE MEMPHIS TN  
700 PM CDT FRI APR 20 2018  
   
..WEST TENNESSEE
 
 
 
CITY SKY/WX TMP DP RH WIND PRES REMARKS
 
MEMPHIS INTL FAIR 68 29 23 NE9 30.23F  
6HR MIN TEMP: 64; 6HR MAX TEMP: 71;  
 
NWS MEMPHIS N/A 67 N/A N/A MISG N/A  
JACKSON FAIR 67 30 25 E7 30.26F  
6HR MIN TEMP: 64; 6HR MAX TEMP: 71;  
 
COVINGTON CLEAR 64 36 34 NE9 30.26F  
SOMERVILLE CLEAR 68 28 22 CALM 30.23F  
BOLIVAR CLEAR 66 27 22 NE6 30.24F  
LEXINGTON CLEAR 66 21 18 NE7 30.26S  
SELMER CLEAR 66 25 20 NE5 30.24F  
DYERSBURG FAIR 65 28 24 NE7 30.28F  
6HR MIN TEMP: 61; 6HR MAX TEMP: 68;  
 
UNION CITY CLEAR 64 27 24 NE9 30.28S  
PARIS CLEAR 63 30 29 NE10 30.30F  
HUNTINGDON CLEAR 64 28 25 NE9 30.28S  
 
   
..EASTERN ARKANSAS
 
 
 
CITY SKY/WX TMP DP RH WIND PRES REMARKS
 
JONESBORO FAIR 63 34 33 E14 30.26F  
6HR MIN TEMP: 61; 6HR MAX TEMP: 67;  
 
WEST MEMPHIS FAIR 67 35 30 NE12 30.22F  
6HR MIN TEMP: 63; 6HR MAX TEMP: 71;  
 
BATESVILLE CLEAR 63 25 23 E12 30.25F  
6HR MIN TEMP: 61; 6HR MAX TEMP: 67;  
 
NEWPORT FAIR 64 30 27 E13 30.25F  
6HR MIN TEMP: 61; 6HR MAX TEMP: 67;  
 
WALNUT RIDGE FAIR 61 28 28 E13 30.27F  
6HR MIN TEMP: 61; 6HR MAX TEMP: 67;  
 
BLYTHEVILLE FAIR 65 30 27 E9 30.27F  
6HR MIN TEMP: 62; 6HR MAX TEMP: 68;  
 
SEARCY FAIR 65 31 28 NE12 30.23F  
6HR MIN TEMP: 61; 6HR MAX TEMP: 68;  
 
STUTTGART FAIR 67 35 30 E10 30.21F  
6HR MIN TEMP: 61; 6HR MAX TEMP: 69;  
 
PINE BLUFF FAIR 66 35 31 E13 30.20F  
6HR MIN TEMP: 61; 6HR MAX TEMP: 67;  
 
MONTICELLO FAIR 66 37 34 E7 30.19F  
6HR MIN TEMP: 62; 6HR MAX TEMP: 69;  
 
   
..NORTH MISSISSIPPI
 
 
 
CITY SKY/WX TMP DP RH WIND PRES REMARKS
 
TUPELO FAIR 69 32 25 NE8 30.23S  
6HR MIN TEMP: 65; 6HR MAX TEMP: 72;  
 
OXFORD FAIR 66 36 32 VRB5G12 30.24S  
BATESVILLE N/A N/A N/A N/A MISG N/A  
OLIVE BRANCH PTCLDY 66 30 26 NE9 30.23F  
TUNICA N/A 68 34 28 NE7 30.23S  
CLARKSDALE CLEAR 70 39 32 E7 30.21F  
CORINTH FAIR 68 25 19 E9 30.24S  
GREENWOOD FAIR 69 37 30 E8 30.20F  
6HR MIN TEMP: 65; 6HR MAX TEMP: 72;  
 
COLUMBUS FAIR 68 40 36 E6 30.22R  
6HR MIN TEMP: 65; 6HR MAX TEMP: 73;  
 
STARKVILLE FAIR 68 36 30 NE6 30.23F  
GOLDEN TRIANGL FAIR 68 37 32 E7 30.22S  
6HR MIN TEMP: 64; 6HR MAX TEMP: 72;  
 
   
..SOUTHEAST MISSOURI
 
 
 
CITY SKY/WX TMP DP RH WIND PRES REMARKS
 
KENNETT FAIR 64 28 25 NE12 30.26F  
MALDEN FAIR 64 25 22 NE10 30.30F  
WEST PLAINS PTCLDY 62 13 14 SE10 30.26F  
6HR MIN TEMP: 59; 6HR MAX TEMP: 66;  
 
POPLAR BLUFF FAIR 62 31 31 E9 30.29F  
6HR MIN TEMP: 59; 6HR MAX TEMP: 65;  
 
CAPE GIRARDEAU FAIR 61 26 26 E12 30.31F  
6HR MIN TEMP: 61; 6HR MAX TEMP: 67;  
 
   
..NORTHWEST ALABAMA
 
 
 
CITY SKY/WX TMP DP RH WIND PRES REMARKS
 
MUSCLE SHOALS FAIR 64 34 32 E5 30.26F  
6HR MIN TEMP: 62; 6HR MAX TEMP: 70;  
 
   
..MIDDLE TENNESSEE
 
 
 
CITY SKY/WX TMP DP RH WIND PRES REMARKS
 
NASHVILLE PTCLDY 63 29 27 NE7 30.30F  
6HR MIN TEMP: 63; 6HR MAX TEMP: 68;  
 
CLARKSVILLE FAIR 59 28 30 E6 30.32F  
6HR MIN TEMP: 59; 6HR MAX TEMP: 64;  
 
COLUMBIA CLEAR 64 27 24 NE7 30.27F  
LEWISBURG CLEAR 61 32 33 N7 30.27F  
 
   
..WESTERN KENTUCKY
 
 
 
CITY SKY/WX TMP DP RH WIND PRES REMARKS
 
PADUCAH FAIR 62 28 27 NE9 30.31F  
6HR MIN TEMP: 60; 6HR MAX TEMP: 66;  
 
FORT CAMPBELL FAIR 61 33 35 SE3 30.31F  
6HR MIN TEMP: 59; 6HR MAX TEMP: 64;  
 
   
..CENTRAL ARKANSAS
 
 
 
CITY SKY/WX TMP DP RH WIND PRES REMARKS
 
LITTLE ROCK MOCLDY 64 33 31 E13 30.21F  
6HR MIN TEMP: 61; 6HR MAX TEMP: 68;  
 
SKY/WX REPORTED AS FAIR MEANS FEW OR NO CLOUDS BELOW  
12 THOUSAND FEET.  
 
 
 
CLICK HERE TO GO TO PREVIOUS BULLETINS.

The Nexlab TN Page
The Nexlab MS Page
The Nexlab AR Page Main Text Page